CHINASAT 11 (ZX 11)

Last updated on Sat Jun 29 2024 00:02:39 GMT+0000 (Coordinated Universal Time)

1 39157U 13020A 24180.64462895 -.00000287 00000+0 00000+0 0 9996 2 39157 0.0199 286.4504 0001946 48.8790 271.8790 1.00269947 40692
UTC large
Height (km)
Speed (km/s)
/
Latitude / Longitude
Inclination (degrees)
Orbital Period (minutes)
Azimuth
Elevation
Range (km)
Doppler Factor

Next 0 passes for location: London (51.5072 / 0.1276)

Sorry there are no passes over London.